Location: Makakahi
(40.6833°S, 175.6000°E)
Time: 00:25:14
(UTC+00:00)

FENGYUN 1C DEB - Pass Details

Date: 05 December 2024
Orbit: 812 x 877 km, 98.8° (Epoch: 19 January)

Event Time Altitude Azimuth Distance (km) Brightness Sun altitude
Rises 10:42:26 0° 186° (S) 3,376 ? -23.8°
Reaches altitude 10° 10:45:55 10° 209° (SSW) 2,440 ? -24.0°
Maximum altitude 10:48:35 14° 239° (WSW) 2,165 ? -24.2°
Drops below altitude 10° 10:51:16 10° 269° (W) 2,440 ? -24.4°
Sets 10:54:47 0° 293° (WNW) 3,376 ? -24.6°
